Location: Newark
(47.5008°N, 9.7480°E)
Time: 01:23:20
(UTC+00:00)

Envisat - Visible Passes

Search period start: 20 August 2019 00:00
Search period end: 30 August 2019 00:00
Orbit: 764 x 766 km, 98.1° (Epoch: 19 August)

Date Brightness Start Highest point End Pass type
(mag) Time Alt. Az. Time Alt. Az. Time Alt. Az.
22 Aug 6.0 19:04:03 10° WSW 19:06:42 14° W 19:09:23 10° NW visible
25 Aug 5.8 18:51:56 10° SW 18:55:19 18° W 18:58:42 10° NW visible
27 Aug 6.5 19:20:55 10° W 19:21:12 10° W 19:21:29 10° W visible
28 Aug 5.7 18:40:03 10° SW 18:43:56 22° W 18:47:51 10° NW visible
